Galax, VA

12:58 AM EST on February 21, 2018 (GMT -0500)
Twin County

Weather History for KHLX - April, 2013

Change the Weather History Date:

Thursday, April 11, 2013

  Actual Average (KBLF) Record (KBLF)
Temperature  
Mean Temperature 70 °F -  
Max Temperature 77 °F 61 °F 82 °F (2008)
Min Temperature 62 °F 40 °F 24 °F (1960)
Cooling Degree Days 4    
Growing Degree Days 20 (Base 50)    
Moisture  
Dew Point 57 °F    
Average Humidity 65    
Maximum Humidity 94    
Minimum Humidity 44    
Precipitation  
Precipitation 0.34 in - - ()
Sea Level Pressure  
Sea Level Pressure 29.94 in    
Wind  
Wind Speed 8 mph (South)    
Max Wind Speed 17 mph    
Max Gust Speed 32 mph    
Visibility 10 miles    
Events Rain    
Averages and records for this station are not official NWS values.
T = Trace of Precipitation, MM = Missing Value Source: NWS Daily Summary

Daily Weather History Graph

Daily Weather History Graph

Search for Another Location

Airport or City:

Trip Planner

Search our weather history database for the weather conditions in past years. The results will help you decide how hot, cold, wet, or windy it might be!

Date:

Astronomy

Apr. 11, 2013 Rise Set
Actual Time 6:54 AM EDT 7:54 PM EDT
Civil Twilight 6:28 AM EDT 8:21 PM EDT
Nautical Twilight 5:56 AM EDT 8:52 PM EDT
Astronomical Twilight 5:24 AM EDT 9:25 PM EDT
Moon 7:27 AM EDT (4/11) 9:24 PM EDT (4/11)
Length of Visible Light 13h 53m
Length of Day
13h 00m
New Moon, 2% of the Moon is Illuminated
Apr 11
New Moon
Apr 18
First Quarter
Apr 25
Full
May 2
Last Quarter
May 9
New

Hourly Weather History & Observations

Time (EDT) Temp. Dew Point Humidity Pressure Visibility Wind Dir Wind Speed Gust Speed Precip Events Conditions
12:15 AM 69.8 °F 55.4 °F 60% 30.03 in 10.0 mi South 8.1 mph - N/A   Clear
12:35 AM 69.8 °F 55.4 °F 60% 30.02 in 10.0 mi South 9.2 mph - N/A   Clear
12:55 AM 69.8 °F 55.4 °F 60% 30.03 in 10.0 mi South 8.1 mph - N/A   Clear
1:15 AM 69.8 °F 55.4 °F 60% 30.04 in 10.0 mi South 9.2 mph - N/A   Clear
1:35 AM 68.0 °F 55.4 °F 64% 30.03 in 10.0 mi South 8.1 mph - N/A   Clear
1:55 AM 68.0 °F 55.4 °F 64% 30.02 in 10.0 mi South 6.9 mph - N/A   Clear
2:15 AM 66.2 °F 55.4 °F 68% 30.01 in 10.0 mi South 5.8 mph - N/A   Clear
2:35 AM 66.2 °F 55.4 °F 68% 30.00 in 10.0 mi South 6.9 mph - N/A   Clear
2:55 AM 66.2 °F 55.4 °F 68% 30.00 in 10.0 mi South 10.4 mph - N/A   Clear
3:15 AM 66.2 °F 57.2 °F 73% 30.00 in 10.0 mi South 5.8 mph - N/A   Clear
3:35 AM 66.2 °F 55.4 °F 68% 29.99 in 10.0 mi South 5.8 mph - N/A   Clear
3:55 AM 66.2 °F 57.2 °F 73% 29.99 in 10.0 mi South 5.8 mph - N/A   Clear
4:15 AM 66.2 °F 57.2 °F 73% 29.99 in 10.0 mi South 4.6 mph - N/A   Clear
4:35 AM 66.2 °F 55.4 °F 68% 29.99 in 10.0 mi South 3.5 mph - N/A   Clear
4:55 AM 66.2 °F 57.2 °F 73% 29.99 in 10.0 mi South 4.6 mph - N/A   Clear
5:15 AM 64.4 °F 57.2 °F 77% 30.00 in 10.0 mi South 4.6 mph - N/A   Clear
5:35 AM 62.6 °F 57.2 °F 82% 29.99 in 10.0 mi SSE 4.6 mph - N/A   Clear
5:55 AM 62.6 °F 57.2 °F 82% 29.99 in 10.0 mi SSE 5.8 mph - N/A   Clear
6:15 AM 62.6 °F 57.2 °F 82% 29.99 in 10.0 mi South 5.8 mph - N/A   Clear
6:35 AM 62.6 °F 57.2 °F 82% 29.99 in 10.0 mi SSE 4.6 mph - N/A   Clear
6:55 AM 62.6 °F 57.2 °F 82% 30.00 in 10.0 mi SSE 4.6 mph - N/A   Clear
7:15 AM 62.6 °F 57.2 °F 82% 30.01 in 10.0 mi South 4.6 mph - N/A   Clear
7:35 AM 62.6 °F 57.2 °F 82% 30.01 in 10.0 mi South 5.8 mph - N/A   Clear
7:55 AM 62.6 °F 55.4 °F 77% 30.02 in 10.0 mi South 3.5 mph - N/A   Clear
8:15 AM 62.6 °F 57.2 °F 82% 30.02 in 10.0 mi South 4.6 mph - N/A   Clear
8:35 AM 64.4 °F 57.2 °F 77% 30.02 in 10.0 mi SSW 4.6 mph - N/A   Clear
8:55 AM 66.2 °F 57.2 °F 73% 30.02 in 10.0 mi South 4.6 mph - N/A   Clear
9:15 AM 66.2 °F 57.2 °F 73% 30.02 in 10.0 mi SSW 5.8 mph - N/A   Clear
9:35 AM 66.2 °F 57.2 °F 73% 30.02 in 10.0 mi SSW 6.9 mph - N/A   Clear
9:55 AM 68.0 °F 57.2 °F 68% 30.01 in 10.0 mi South 5.8 mph - N/A   Clear
10:15 AM 69.8 °F 57.2 °F 64% 30.01 in 10.0 mi SSW 9.2 mph - N/A   Clear
10:35 AM 71.6 °F 55.4 °F 57% 30.00 in 10.0 mi SSW 13.8 mph - N/A   Clear
10:55 AM 73.4 °F 57.2 °F 57% 30.00 in 10.0 mi SSW 16.1 mph 20.7 mph N/A   Clear
11:15 AM 73.4 °F 55.4 °F 53% 29.99 in 10.0 mi South 11.5 mph - N/A   Clear
11:35 AM 75.2 °F 53.6 °F 47% 29.99 in 10.0 mi South 15.0 mph 20.7 mph N/A   Clear
11:55 AM 75.2 °F 53.6 °F 47% 29.98 in 10.0 mi South 13.8 mph 23.0 mph N/A   Clear
12:15 PM 75.2 °F 55.4 °F 50% 29.98 in 10.0 mi South 16.1 mph 21.9 mph N/A   Clear
12:35 PM 75.2 °F 53.6 °F 47% 29.98 in 10.0 mi South 15.0 mph 26.5 mph N/A   Clear
1:15 PM 75.2 °F 55.4 °F 50% 29.96 in 10.0 mi South 9.2 mph - N/A   Clear
1:35 PM 77.0 °F 53.6 °F 44% 29.95 in 10.0 mi SSE 13.8 mph 21.9 mph N/A   Clear
1:55 PM 77.0 °F 55.4 °F 47% 29.94 in 10.0 mi South 13.8 mph 21.9 mph N/A   Clear
2:15 PM 75.2 °F 55.4 °F 50% 29.93 in 10.0 mi South 9.2 mph 18.4 mph N/A   Clear
2:35 PM 75.2 °F 55.4 °F 50% 29.92 in 10.0 mi South 11.5 mph 20.7 mph N/A   Clear
2:55 PM 75.2 °F 55.4 °F 50% 29.92 in 10.0 mi South 12.7 mph 21.9 mph N/A   Clear
3:15 PM 77.0 °F 55.4 °F 47% 29.91 in 10.0 mi South 12.7 mph 18.4 mph N/A   Clear
3:35 PM 77.0 °F 55.4 °F 47% 29.90 in 10.0 mi South 16.1 mph 24.2 mph N/A   Clear
3:55 PM 75.2 °F 55.4 °F 50% 29.89 in 10.0 mi South 11.5 mph 21.9 mph N/A   Clear
4:15 PM 75.2 °F 55.4 °F 50% 29.88 in 10.0 mi South 8.1 mph 21.9 mph N/A   Clear
4:35 PM 77.0 °F 53.6 °F 44% 29.87 in 10.0 mi SSW 13.8 mph 23.0 mph N/A   Scattered Clouds
4:55 PM 75.2 °F 53.6 °F 47% 29.87 in 10.0 mi South 13.8 mph 24.2 mph N/A   Scattered Clouds
5:15 PM 75.2 °F 53.6 °F 47% 29.86 in 10.0 mi South 12.7 mph 23.0 mph N/A   Scattered Clouds
5:35 PM 75.2 °F 53.6 °F 47% 29.86 in 10.0 mi South 10.4 mph 24.2 mph N/A   Clear
5:55 PM 75.2 °F 51.8 °F 44% 29.86 in 10.0 mi South 16.1 mph 25.3 mph N/A   Clear
6:15 PM 75.2 °F 51.8 °F 44% 29.86 in 10.0 mi South 9.2 mph 25.3 mph N/A   Clear
6:35 PM 73.4 °F 53.6 °F 50% 29.86 in 10.0 mi SSW 17.3 mph 23.0 mph N/A   Clear
6:55 PM 73.4 °F 53.6 °F 50% 29.87 in 10.0 mi South 6.9 mph 16.1 mph N/A   Scattered Clouds
7:15 PM 73.4 °F 55.4 °F 53% 29.87 in 10.0 mi South 9.2 mph 16.1 mph N/A   Scattered Clouds
7:35 PM 71.6 °F 57.2 °F 60% 29.86 in 10.0 mi South 3.5 mph - N/A   Mostly Cloudy
7:55 PM 71.6 °F 57.2 °F 60% 29.85 in 10.0 mi SSE 5.8 mph 9.2 mph N/A   Mostly Cloudy
8:15 PM 71.6 °F 57.2 °F 60% 29.85 in 10.0 mi SSE 8.1 mph 17.3 mph N/A   Mostly Cloudy
8:35 PM 71.6 °F 59.0 °F 64% 29.85 in 10.0 mi SSE 9.2 mph 17.3 mph N/A   Mostly Cloudy
8:55 PM 71.6 °F 60.8 °F 69% 29.85 in 10.0 mi South 8.1 mph - N/A   Mostly Cloudy
9:15 PM 71.6 °F 60.8 °F 69% 29.85 in 7.0 mi SSE 9.2 mph 16.1 mph N/A Rain Rain
9:35 PM 68.0 °F 62.6 °F 83% 29.83 in 10.0 mi SSE 3.5 mph - 0.01 in   Mostly Cloudy
9:55 PM 66.2 °F 62.6 °F 88% 29.84 in 5.0 mi South 9.2 mph 21.9 mph 0.08 in Rain Rain
10:15 PM 66.2 °F 62.6 °F 88% 29.83 in 10.0 mi SSE 6.9 mph - 0.09 in   Mostly Cloudy
10:35 PM 66.2 °F 62.6 °F 88% 29.82 in 10.0 mi SSE 6.9 mph - 0.09 in   Scattered Clouds
10:55 PM 66.2 °F 62.6 °F 88% 29.81 in 10.0 mi SSE 9.2 mph - N/A   Scattered Clouds
11:15 PM 66.2 °F 62.6 °F 88% 29.80 in 10.0 mi SSE 8.1 mph 18.4 mph N/A   Scattered Clouds
11:35 PM 66.2 °F 62.6 °F 88% 29.82 in 3.0 mi South 15.0 mph 32.2 mph 0.17 in Rain Heavy Rain
11:55 PM 64.4 °F 62.6 °F 94% 29.80 in 10.0 mi South 10.4 mph 20.7 mph 0.02 in Rain Light Rain